Rio Preto, Brazil
Current Conditions -  °F | °C
As of 10:00 PM on Saturday 25 Oct 2014 (Local Time) from SBBQ Reporting Station
Light Rain Light Rain  
Wind Chill: 63°   Ceiling: 8000
Heat Index: 63°   Visibility: 6mi
Dew Point: 59°   Wind: 5mph
Humidity: 88%   Direction: 300°WNW
Pressure: 30.12"   Gusts: NA
Location:  22.09°S, 43.83°W
Report Text: SBBQ 260000Z 30004KT 9000 -RA FEW006 OVC080 17/15 Q1020
Loading
Personal Weather Stations






























Interactive Weather Map
Tropical Storm Tracking
New forecast layout! Learn more

10-Day Weather Forecast

Advertisements
Track Severe Weather on mobile